Location: Newark
(35.3494°N, 94.4375°W)
Time: 11:23:00
(UTC+00:00)

Envisat - Visible Passes

Search period start: 24 September 2020 00:00
Search period end: 04 October 2020 00:00
Orbit: 764 x 766 km, 98.1° (Epoch: 23 September)

Date Brightness Start Highest point End Pass type
(mag) Time Alt. Az. Time Alt. Az. Time Alt. Az.
26 Sep 6.1 00:45:50 10° SW 00:49:15 18° W 00:52:39 10° NW visible
26 Sep 6.0 11:18:07 10° NE 11:21:46 19° E 11:25:22 10° SE visible
28 Sep 5.0 11:42:42 10° NNE 11:47:21 35° E 11:51:58 10° SSE visible
29 Sep 5.8 00:33:48 10° SSW 00:37:47 23° W 00:41:48 10° NW visible
29 Sep 6.2 11:07:27 10° ENE 11:10:18 15° E 11:13:08 10° SE visible
01 Oct 6.4 01:01:24 10° WSW 01:03:27 12° W 01:05:30 10° WNW visible
01 Oct 5.4 11:31:37 10° NE 11:35:56 27° E 11:40:14 10° SSE visible
02 Oct 5.3 00:21:57 10° SSW 00:26:22 30° W 00:30:48 10° NW visible
02 Oct 6.5 10:57:20 10° ENE 10:58:49 11° E 11:00:19 10° ESE visible
